LOCATION_NAME,SAMPLE COLLECTION TIME,DOSE EQUIVALENT RATE (nSv/h),GAMMA COUNT RATE R02 (CPM),GAMMA COUNT RATE R03 (CPM),GAMMA COUNT RATE R04 (CPM),GAMMA COUNT RATE R05 (CPM),GAMMA COUNT RATE R06 (CPM),GAMMA COUNT RATE R07 (CPM),GAMMA COUNT RATE R08 (CPM),GAMMA COUNT RATE R09 (CPM),STATUS
AL: BIRMINGHAM,01/01/2009 00:27:00,,2812.00,999.00,287.00,122.00,89.00,105.00,50.00,28.00,APPROVED
AL: BIRMINGHAM,01/01/2009 01:27:00,,2766.00,989.00,281.00,119.00,88.00,103.00,47.00,29.00,APPROVED
AL: BIRMINGHAM,01/01/2009 02:27:00,,2736.00,960.00,279.00,116.00,89.00,103.00,45.00,28.00,APPROVED
AL: BIRMINGHAM,01/01/2009 03:27:00,,2711.00,953.00,272.00,114.00,84.00,102.00,43.00,28.00,APPROVED
AL: BIRMINGHAM,01/01/2009 04:27:00,,2705.00,945.00,274.00,115.00,84.00,97.00,43.00,29.00,APPROVED
AL: BIRMINGHAM,01/01/2009 05:28:00,,2684.00,935.00,270.00,115.00,85.00,99.00,44.00,29.00,APPROVED
AL: BIRMINGHAM,01/01/2009 06:28:00,,2695.00,942.00,269.00,114.00,84.00,97.00,42.00,27.00,APPROVED
AL: BIRMINGHAM,01/01/2009 07:28:00,,2709.00,942.00,270.00,114.00,84.00,102.00,42.00,28.00,APPROVED
AL: BIRMINGHAM,01/01/2009 08:28:00,,2713.00,950.00,271.00,115.00,88.00,99.00,44.00,28.00,APPROVED
AL: BIRMINGHAM,01/01/2009 09:28:00,,2696.00,948.00,270.00,114.00,84.00,101.00,42.00,29.00,APPROVED
AL: BIRMINGHAM,01/01/2009 10:29:00,,2693.00,938.00,270.00,113.00,87.00,100.00,44.00,28.00,APPROVED
AL: BIRMINGHAM,01/01/2009 11:29:00,,2684.00,936.00,267.00,115.00,85.00,98.00,42.00,28.00,APPROVED
AL: BIRMINGHAM,01/01/2009 12:29:00,,2696.00,932.00,265.00,113.00,83.00,98.00,43.00,29.00,APPROVED
AL: BIRMINGHAM,01/01/2009 13:29:00,,2697.00,942.00,274.00,113.00,84.00,101.00,42.00,28.00,APPROVED
AL: BIRMINGHAM,01/01/2009 14:29:00,,2749.00,972.00,275.00,116.00,86.00,102.00,44.00,28.00,APPROVED
AL: BIRMINGHAM,01/01/2009 15:30:00,,2797.00,999.00,285.00,122.00,87.00,104.00,48.00,30.00,APPROVED
AL: BIRMINGHAM,01/01/2009 16:30:00,,2811.00,1004.00,285.00,124.00,90.00,101.00,51.00,28.00,APPROVED
AL: BIRMINGHAM,01/01/2009 17:30:00,,2843.00,1032.00,283.00,124.00,91.00,100.00,54.00,27.00,APPROVED
AL: BIRMINGHAM,01/01/2009 18:30:00,,2853.00,1023.00,287.00,126.00,91.00,101.00,54.00,30.00,APPROVED
AL: BIRMINGHAM,01/01/2009 19:30:00,,2859.00,1038.00,290.00,126.00,91.00,100.00,56.00,29.00,APPROVED
AL: BIRMINGHAM,01/01/2009 20:31:00,,2855.00,1024.00,289.00,129.00,91.00,99.00,56.00,29.00,APPROVED
AL: BIRMINGHAM,01/01/2009 21:31:00,,2852.00,1019.00,282.00,127.00,91.00,96.00,55.00,29.00,APPROVED
AL: BIRMINGHAM,01/01/2009 22:31:00,,2838.00,1024.00,285.00,124.00,90.00,96.00,54.00,28.00,APPROVED
AL: BIRMINGHAM,01/01/2009 23:31:00,,2843.00,1017.00,281.00,127.00,89.00,100.00,53.00,30.00,APPROVED
AL: BIRMINGHAM,01/02/2009 00:31:00,,2851.00,1019.00,281.00,124.00,90.00,97.00,52.00,29.00,APPROVED
AL: BIRMINGHAM,01/02/2009 01:32:00,,2836.00,1005.00,285.00,124.00,91.00,98.00,52.00,28.00,APPROVED
AL: BIRMINGHAM,01/02/2009 02:32:00,,2820.00,1001.00,279.00,125.00,90.00,102.00,50.00,30.00,APPROVED
AL: BIRMINGHAM,01/02/2009 03:32:00,,2830.00,1011.00,285.00,125.00,88.00,99.00,51.00,30.00,APPROVED
AL: BIRMINGHAM,01/02/2009 04:32:00,,2829.00,1010.00,281.00,126.00,90.00,101.00,53.00,29.00,APPROVED
AL: BIRMINGHAM,01/02/2009 05:32:00,,2844.00,1011.00,284.00,122.00,90.00,100.00,54.00,29.00,APPROVED
AL: BIRMINGHAM,01/02/2009 06:33:00,,2812.00,1002.00,285.00,122.00,90.00,101.00,51.00,28.00,APPROVED
AL: BIRMINGHAM,01/02/2009 07:33:00,,2811.00,1004.00,282.00,123.00,90.00,97.00,52.00,30.00,APPROVED
AL: BIRMINGHAM,01/02/2009 08:33:00,,2818.00,997.00,284.00,121.00,88.00,97.00,51.00,29.00,APPROVED
AL: BIRMINGHAM,01/02/2009 09:33:00,,2815.00,996.00,276.00,122.00,88.00,99.00,52.00,28.00,APPROVED
AL: BIRMINGHAM,01/02/2009 10:33:00,,2824.00,989.00,279.00,121.00,88.00,97.00,52.00,29.00,APPROVED
AL: BIRMINGHAM,01/02/2009 11:33:00,,2867.00,1015.00,287.00,123.00,92.00,100.00,51.00,31.00,APPROVED
AL: BIRMINGHAM,01/02/2009 12:34:00,,2934.00,1074.00,304.00,132.00,93.00,105.00,53.00,29.00,APPROVED
AL: BIRMINGHAM,01/02/2009 13:34:00,,3049.00,1129.00,321.00,139.00,99.00,115.00,59.00,32.00,APPROVED
AL: BIRMINGHAM,01/15/2009 23:35:00,,2633.00,904.00,255.00,108.00,83.00,95.00,40.00,27.00,APPROVED
AL: BIRMINGHAM,01/16/2009 00:35:00,,2613.00,890.00,254.00,109.00,79.00,94.00,39.00,27.00,APPROVED
AL: BIRMINGHAM,01/16/2009 01:36:00,,2612.00,883.00,252.00,110.00,81.00,92.00,39.00,27.00,APPROVED
AL: BIRMINGHAM,01/16/2009 02:36:00,,2597.00,890.00,251.00,109.00,81.00,95.00,38.00,27.00,APPROVED
AL: BIRMINGHAM,01/16/2009 03:36:00,,2602.00,892.00,253.00,107.00,82.00,96.00,40.00,27.00,APPROVED
AL: BIRMINGHAM,01/16/2009 04:36:00,,2605.00,912.00,261.00,111.00,82.00,95.00,45.00,27.00,APPROVED
AL: BIRMINGHAM,01/16/2009 05:36:00,,2590.00,892.00,261.00,112.00,80.00,94.00,40.00,27.00,APPROVED
AL: BIRMINGHAM,01/16/2009 06:37:00,,2598.00,899.00,263.00,111.00,82.00,95.00,40.00,28.00,APPROVED
AL: BIRMINGHAM,01/16/2009 07:37:00,,2588.00,893.00,258.00,108.00,80.00,94.00,38.00,27.00,APPROVED
AL: BIRMINGHAM,01/16/2009 08:37:00,,2569.00,883.00,254.00,108.00,81.00,92.00,39.00,28.00,APPROVED
AL: BIRMINGHAM,01/16/2009 09:37:00,,2552.00,875.00,253.00,105.00,80.00,95.00,39.00,26.00,APPROVED
AL: BIRMINGHAM,01/16/2009 10:37:00,,2551.00,879.00,254.00,110.00,80.00,93.00,41.00,26.00,APPROVED
AL: BIRMINGHAM,01/16/2009 11:38:00,,2540.00,883.00,254.00,110.00,80.00,92.00,39.00,27.00,APPROVED
AL: BIRMINGHAM,01/16/2009 12:38:00,,2563.00,889.00,251.00,110.00,80.00,96.00,40.00,27.00,APPROVED
AL: BIRMINGHAM,01/16/2009 13:38:00,,2554.00,895.00,257.00,108.00,83.00,94.00,40.00,26.00,APPROVED
AL: BIRMINGHAM,01/16/2009 14:38:00,,2558.00,884.00,256.00,108.00,81.00,97.00,42.00,27.00,APPROVED
AL: BIRMINGHAM,01/16/2009 15:38:00,,2601.00,894.00,259.00,108.00,81.00,99.00,40.00,27.00,APPROVED
AL: BIRMINGHAM,01/16/2009 16:39:00,,2613.00,909.00,264.00,112.00,82.00,96.00,40.00,27.00,APPROVED
AL: BIRMINGHAM,01/16/2009 17:39:00,,2641.00,911.00,260.00,112.00,82.00,98.00,40.00,27.00,APPROVED
AL: BIRMINGHAM,01/16/2009 18:39:00,,2668.00,929.00,265.00,110.00,83.00,97.00,41.00,27.00,APPROVED
AL: BIRMINGHAM,01/16/2009 19:39:00,,2788.00,940.00,270.00,114.00,85.00,98.00,41.00,27.00,APPROVED
AL: BIRMINGHAM,01/16/2009 20:39:00,,2686.00,932.00,269.00,113.00,86.00,96.00,43.00,26.00,APPROVED
AL: BIRMINGHAM,01/16/2009 21:40:00,,2687.00,942.00,270.00,115.00,84.00,97.00,42.00,28.00,APPROVED
AL: BIRMINGHAM,01/16/2009 22:40:00,,2667.00,937.00,268.00,113.00,85.00,96.00,43.00,29.00,APPROVED
AL: BIRMINGHAM,01/16/2009 23:40:00,,2674.00,926.00,268.00,113.00,85.00,97.00,41.00,28.00,APPROVED
AL: BIRMINGHAM,01/17/2009 00:40:00,,2641.00,922.00,263.00,110.00,83.00,98.00,41.00,28.00,APPROVED
AL: BIRMINGHAM,01/17/2009 01:40:00,,2625.00,917.00,261.00,113.00,82.00,98.00,41.00,29.00,APPROVED
AL: BIRMINGHAM,01/17/2009 02:41:00,,2638.00,910.00,266.00,111.00,83.00,98.00,42.00,26.00,APPROVED
AL: BIRMINGHAM,01/17/2009 03:41:00,,2634.00,920.00,267.00,112.00,81.00,95.00,42.00,27.00,APPROVED
AL: BIRMINGHAM,01/17/2009 04:41:00,,2660.00,931.00,268.00,114.00,85.00,101.00,42.00,27.00,APPROVED
AL: BIRMINGHAM,01/17/2009 05:41:00,,2670.00,943.00,270.00,113.00,86.00,100.00,43.00,26.00,APPROVED
AL: BIRMINGHAM,01/17/2009 06:41:00,,2674.00,984.00,281.00,123.00,90.00,101.00,52.00,28.00,APPROVED
AL: BIRMINGHAM,01/17/2009 07:42:00,,2696.00,1067.00,286.00,153.00,98.00,101.00,66.00,32.00,APPROVED
AL: BIRMINGHAM,01/17/2009 08:42:00,,2693.00,1081.00,290.00,159.00,100.00,102.00,67.00,32.00,APPROVED
AL: BIRMINGHAM,01/17/2009 09:42:00,,2699.00,1084.00,289.00,159.00,100.00,106.00,66.00,34.00,APPROVED
AL: BIRMINGHAM,01/17/2009 10:42:00,,2712.00,1101.00,292.00,160.00,100.00,108.00,67.00,33.00,APPROVED
AL: BIRMINGHAM,01/17/2009 11:42:00,,2708.00,1086.00,291.00,155.00,102.00,104.00,67.00,33.00,APPROVED
AL: BIRMINGHAM,01/17/2009 12:43:00,,2708.00,1078.00,287.00,152.00,99.00,103.00,66.00,35.00,APPROVED
AL: BIRMINGHAM,01/17/2009 13:43:00,,2706.00,1081.00,287.00,157.00,100.00,104.00,66.00,34.00,APPROVED
AL: BIRMINGHAM,01/17/2009 14:43:00,,2716.00,1101.00,295.00,157.00,101.00,106.00,66.00,34.00,APPROVED
AL: BIRMINGHAM,01/17/2009 15:43:00,,2733.00,1094.00,292.00,161.00,99.00,104.00,68.00,34.00,APPROVED
AL: BIRMINGHAM,01/17/2009 16:43:00,,2764.00,1119.00,290.00,162.00,104.00,106.00,68.00,34.00,APPROVED
AL: BIRMINGHAM,01/17/2009 17:44:00,,2782.00,1134.00,298.00,166.00,105.00,108.00,70.00,36.00,APPROVED
AL: BIRMINGHAM,01/17/2009 18:44:00,,2821.00,1165.00,305.00,171.00,106.00,111.00,70.00,37.00,APPROVED
AL: BIRMINGHAM,01/17/2009 19:44:00,,2794.00,1151.00,304.00,173.00,104.00,111.00,69.00,35.00,APPROVED
AL: BIRMINGHAM,01/17/2009 20:44:00,,2764.00,1116.00,298.00,163.00,106.00,108.00,66.00,34.00,APPROVED
AL: BIRMINGHAM,01/17/2009 21:44:00,,2750.00,1113.00,294.00,164.00,104.00,104.00,69.00,35.00,APPROVED
AL: BIRMINGHAM,01/17/2009 22:45:00,,2760.00,1119.00,296.00,161.00,102.00,106.00,66.00,34.00,APPROVED
AL: BIRMINGHAM,01/17/2009 23:45:00,,2757.00,1121.00,296.00,163.00,101.00,107.00,68.00,34.00,APPROVED
AL: BIRMINGHAM,01/18/2009 00:45:00,,2783.00,1115.00,294.00,159.00,101.00,105.00,68.00,34.00,APPROVED
AL: BIRMINGHAM,01/18/2009 01:45:00,,2761.00,1111.00,291.00,156.00,99.00,107.00,66.00,33.00,APPROVED
AL: BIRMINGHAM,01/18/2009 02:45:00,,2749.00,1105.00,289.00,157.00,100.00,105.00,65.00,34.00,APPROVED
AL: BIRMINGHAM,01/18/2009 03:46:00,,2770.00,1097.00,295.00,159.00,100.00,106.00,68.00,34.00,APPROVED
AL: BIRMINGHAM,01/18/2009 04:46:00,,2771.00,1110.00,293.00,157.00,102.00,105.00,68.00,34.00,APPROVED
AL: BIRMINGHAM,01/18/2009 05:46:00,,2768.00,1121.00,292.00,158.00,100.00,108.00,66.00,34.00,APPROVED
AL: BIRMINGHAM,01/18/2009 06:46:00,,2769.00,1120.00,295.00,159.00,102.00,109.00,67.00,36.00,APPROVED
AL: BIRMINGHAM,01/18/2009 07:46:00,,2912.00,1204.00,317.00,175.00,106.00,115.00,71.00,37.00,APPROVED
AL: BIRMINGHAM,01/18/2009 08:46:00,,3163.00,1385.00,354.00,211.00,126.00,134.00,83.00,42.00,APPROVED
AL: BIRMINGHAM,01/18/2009 09:47:00,,2988.00,1249.00,328.00,192.00,115.00,123.00,74.00,39.00,APPROVED
AL: BIRMINGHAM,01/18/2009 10:47:00,,2807.00,1130.00,299.00,166.00,103.00,109.00,70.00,35.00,APPROVED
AL: BIRMINGHAM,01/18/2009 11:47:00,,2949.00,1224.00,317.00,179.00,111.00,118.00,70.00,38.00,APPROVED
AL: BIRMINGHAM,01/18/2009 12:47:00,,2935.00,1236.00,320.00,182.00,112.00,120.00,73.00,37.00,APPROVED
AL: BIRMINGHAM,01/18/2009 13:47:00,,2917.00,1207.00,314.00,178.00,111.00,118.00,73.00,37.00,APPROVED
AL: BIRMINGHAM,01/18/2009 14:48:00,,2842.00,1167.00,305.00,175.00,104.00,114.00,71.00,36.00,APPROVED
AL: BIRMINGHAM,01/18/2009 15:48:00,,2848.00,1162.00,304.00,170.00,104.00,112.00,69.00,36.00,APPROVED
AL: BIRMINGHAM,01/18/2009 16:48:00,,2828.00,1158.00,301.00,166.00,103.00,109.00,68.00,36.00,APPROVED
AL: BIRMINGHAM,01/18/2009 17:48:00,,2815.00,1132.00,293.00,164.00,99.00,106.00,67.00,36.00,APPROVED
AL: BIRMINGHAM,01/18/2009 18:48:00,,2792.00,1125.00,292.00,160.00,100.00,107.00,67.00,34.00,APPROVED
AL: BIRMINGHAM,01/19/2009 07:51:00,,2855.00,1068.00,307.00,128.00,93.00,112.00,52.00,30.00,APPROVED
AL: BIRMINGHAM,01/19/2009 08:51:00,,2835.00,1059.00,305.00,131.00,94.00,112.00,51.00,29.00,APPROVED
AL: BIRMINGHAM,01/19/2009 09:51:00,,2834.00,1048.00,307.00,125.00,93.00,112.00,52.00,30.00,APPROVED
AL: BIRMINGHAM,01/19/2009 10:52:00,,2852.00,1052.00,306.00,129.00,94.00,110.00,51.00,31.00,APPROVED
AL: BIRMINGHAM,01/19/2009 11:52:00,,2860.00,1062.00,309.00,129.00,94.00,113.00,52.00,30.00,APPROVED
AL: BIRMINGHAM,01/19/2009 12:52:00,,2858.00,1052.00,304.00,127.00,94.00,112.00,51.00,29.00,APPROVED
AL: BIRMINGHAM,01/19/2009 17:53:00,,2980.00,1130.00,324.00,143.00,100.00,114.00,60.00,31.00,APPROVED
AL: BIRMINGHAM,01/19/2009 18:53:00,,2992.00,1148.00,319.00,142.00,101.00,115.00,62.00,31.00,APPROVED
AL: BIRMINGHAM,01/19/2009 19:53:00,,3056.00,1185.00,342.00,147.00,105.00,121.00,62.00,32.00,APPROVED
AL: BIRMINGHAM,01/19/2009 20:54:00,,2976.00,1134.00,336.00,147.00,100.00,122.00,58.00,32.00,APPROVED
AL: BIRMINGHAM,01/19/2009 21:54:00,,2905.00,1092.00,322.00,137.00,98.00,120.00,55.00,31.00,APPROVED
AL: BIRMINGHAM,01/19/2009 22:54:00,,2863.00,1077.00,316.00,133.00,95.00,116.00,52.00,31.00,APPROVED
AL: BIRMINGHAM,01/19/2009 23:54:00,,2840.00,1065.00,318.00,129.00,97.00,116.00,51.00,30.00,APPROVED
AL: BIRMINGHAM,01/20/2009 00:54:00,,2808.00,1046.00,315.00,127.00,95.00,114.00,51.00,29.00,APPROVED
AL: BIRMINGHAM,01/20/2009 01:54:00,,2788.00,1025.00,305.00,127.00,91.00,112.00,48.00,30.00,APPROVED
AL: BIRMINGHAM,01/20/2009 02:55:00,,2764.00,1014.00,301.00,124.00,91.00,108.00,47.00,31.00,APPROVED
AL: BIRMINGHAM,01/20/2009 03:55:00,,2741.00,1002.00,297.00,124.00,90.00,110.00,46.00,29.00,APPROVED
AL: BIRMINGHAM,01/20/2009 04:55:00,,2736.00,991.00,292.00,121.00,90.00,109.00,45.00,29.00,APPROVED
AL: BIRMINGHAM,01/20/2009 05:55:00,,2736.00,989.00,290.00,121.00,89.00,104.00,44.00,29.00,APPROVED
AL: BIRMINGHAM,01/20/2009 06:55:00,,2722.00,980.00,288.00,118.00,88.00,106.00,46.00,30.00,APPROVED
AL: BIRMINGHAM,01/20/2009 07:56:00,,2721.00,985.00,287.00,120.00,89.00,108.00,44.00,30.00,APPROVED
AL: BIRMINGHAM,01/20/2009 08:56:00,,2722.00,980.00,291.00,119.00,90.00,106.00,44.00,29.00,APPROVED
AL: BIRMINGHAM,01/20/2009 09:56:00,,2742.00,994.00,296.00,119.00,92.00,106.00,44.00,29.00,APPROVED
AL: BIRMINGHAM,01/20/2009 10:56:00,,2760.00,1013.00,302.00,125.00,93.00,109.00,45.00,29.00,APPROVED
AL: BIRMINGHAM,01/20/2009 11:56:00,,2777.00,1026.00,308.00,127.00,92.00,113.00,47.00,28.00,APPROVED
AL: BIRMINGHAM,01/20/2009 12:57:00,,2767.00,1028.00,308.00,127.00,95.00,112.00,47.00,29.00,APPROVED
AL: BIRMINGHAM,01/20/2009 13:57:00,,2756.00,1018.00,305.00,125.00,94.00,114.00,46.00,29.00,APPROVED
AL: BIRMINGHAM,01/20/2009 14:57:00,,2775.00,1016.00,302.00,123.00,90.00,113.00,48.00,29.00,APPROVED
AL: BIRMINGHAM,01/20/2009 15:39:00,,2756.00,1011.00,301.00,123.00,91.00,112.00,46.00,28.00,APPROVED
AL: BIRMINGHAM,01/20/2009 16:55:00,,2659.00,911.00,259.00,109.00,82.00,93.00,39.00,26.00,APPROVED
AL: BIRMINGHAM,01/20/2009 17:56:00,,2698.00,935.00,262.00,112.00,85.00,99.00,40.00,27.00,APPROVED
AL: BIRMINGHAM,01/20/2009 18:56:00,,2687.00,935.00,264.00,112.00,82.00,98.00,44.00,28.00,APPROVED
AL: BIRMINGHAM,01/20/2009 19:56:00,,2711.00,937.00,269.00,113.00,85.00,100.00,45.00,27.00,APPROVED
AL: BIRMINGHAM,01/21/2009 16:00:00,,2723.00,963.00,283.00,118.00,84.00,103.00,45.00,28.00,APPROVED
AL: BIRMINGHAM,01/21/2009 20:01:00,,2801.00,997.00,281.00,122.00,87.00,102.00,49.00,29.00,APPROVED
AL: BIRMINGHAM,01/21/2009 21:01:00,,2811.00,1001.00,283.00,120.00,88.00,100.00,50.00,29.00,APPROVED
AL: BIRMINGHAM,01/21/2009 22:01:00,,2825.00,1019.00,289.00,123.00,89.00,101.00,50.00,28.00,APPROVED
AL: BIRMINGHAM,01/21/2009 23:01:00,,2827.00,1011.00,285.00,125.00,90.00,100.00,50.00,29.00,APPROVED
AL: BIRMINGHAM,01/22/2009 00:01:00,,2794.00,999.00,286.00,122.00,89.00,103.00,48.00,30.00,APPROVED
AL: BIRMINGHAM,01/22/2009 01:02:00,,2770.00,982.00,282.00,120.00,89.00,106.00,47.00,29.00,APPROVED
AL: BIRMINGHAM,01/22/2009 02:02:00,,2741.00,980.00,284.00,117.00,86.00,104.00,47.00,28.00,APPROVED
AL: BIRMINGHAM,01/22/2009 03:02:00,,2726.00,974.00,280.00,118.00,87.00,104.00,45.00,29.00,APPROVED
AL: BIRMINGHAM,01/22/2009 04:02:00,,2710.00,971.00,282.00,117.00,86.00,103.00,45.00,29.00,APPROVED
AL: BIRMINGHAM,01/22/2009 05:02:00,,2720.00,984.00,284.00,118.00,89.00,103.00,46.00,28.00,APPROVED
AL: BIRMINGHAM,01/22/2009 06:03:00,,2731.00,991.00,289.00,122.00,90.00,107.00,46.00,28.00,APPROVED
AL: BIRMINGHAM,01/22/2009 07:03:00,,2778.00,1037.00,304.00,125.00,91.00,113.00,48.00,29.00,APPROVED
AL: BIRMINGHAM,01/22/2009 08:03:00,,2787.00,1044.00,307.00,127.00,96.00,115.00,49.00,30.00,APPROVED
AL: BIRMINGHAM,01/22/2009 09:03:00,,2789.00,1054.00,315.00,129.00,96.00,115.00,50.00,31.00,APPROVED
AL: BIRMINGHAM,01/22/2009 10:03:00,,2807.00,1076.00,324.00,132.00,99.00,117.00,49.00,30.00,APPROVED
AL: BIRMINGHAM,01/22/2009 11:04:00,,2805.00,1082.00,325.00,129.00,97.00,120.00,52.00,31.00,APPROVED
AL: BIRMINGHAM,01/22/2009 12:04:00,,2804.00,1077.00,325.00,130.00,95.00,121.00,51.00,30.00,APPROVED
AL: BIRMINGHAM,01/22/2009 13:04:00,,2816.00,1092.00,329.00,135.00,100.00,123.00,54.00,30.00,APPROVED
AL: BIRMINGHAM,01/22/2009 13:25:00,,2782.00,1040.00,315.00,136.00,94.00,118.00,51.00,32.00,APPROVED
AL: BIRMINGHAM,01/22/2009 14:41:00,,2691.00,929.00,261.00,113.00,82.00,97.00,42.00,27.00,APPROVED
AL: BIRMINGHAM,01/22/2009 15:41:00,,2759.00,980.00,280.00,115.00,87.00,103.00,44.00,29.00,APPROVED
AL: BIRMINGHAM,01/22/2009 16:41:00,,2809.00,1020.00,291.00,123.00,91.00,105.00,49.00,29.00,APPROVED
AL: BIRMINGHAM,01/22/2009 17:41:00,,2807.00,1025.00,289.00,128.00,91.00,102.00,53.00,29.00,APPROVED
AL: BIRMINGHAM,01/22/2009 18:42:00,,2843.00,1044.00,295.00,127.00,92.00,105.00,54.00,29.00,APPROVED
AL: BIRMINGHAM,01/24/2009 08:49:00,,3118.00,1222.00,346.00,159.00,104.00,121.00,68.00,30.00,APPROVED
AL: BIRMINGHAM,01/24/2009 09:49:00,,3405.00,1405.00,404.00,187.00,121.00,141.00,76.00,35.00,APPROVED
AL: BIRMINGHAM,01/27/2009 20:02:00,,2713.00,990.00,273.00,128.00,90.00,92.00,59.00,28.00,APPROVED
AL: BIRMINGHAM,01/27/2009 21:02:00,,2716.00,982.00,270.00,126.00,87.00,92.00,60.00,28.00,APPROVED
AL: BIRMINGHAM,01/27/2009 22:02:00,,2726.00,1002.00,270.00,125.00,89.00,93.00,59.00,28.00,APPROVED
AL: BIRMINGHAM,01/27/2009 23:03:00,,2752.00,1011.00,273.00,128.00,92.00,92.00,62.00,29.00,APPROVED
AL: BIRMINGHAM,01/28/2009 00:03:00,,2768.00,1018.00,282.00,133.00,92.00,96.00,61.00,29.00,APPROVED
AL: BIRMINGHAM,01/28/2009 01:03:00,,2774.00,1012.00,282.00,132.00,92.00,97.00,59.00,30.00,APPROVED
AL: BIRMINGHAM,01/28/2009 02:03:00,,2747.00,998.00,275.00,126.00,90.00,91.00,58.00,29.00,APPROVED
AL: BIRMINGHAM,01/28/2009 03:03:00,,2744.00,991.00,275.00,126.00,86.00,90.00,57.00,28.00,APPROVED
AL: BIRMINGHAM,02/05/2009 14:38:00,,1912.00,1019.00,278.00,145.00,86.00,97.00,63.00,32.00,APPROVED
AL: BIRMINGHAM,02/05/2009 15:39:00,,1922.00,1039.00,283.00,150.00,84.00,101.00,65.00,31.00,APPROVED
AL: BIRMINGHAM,02/05/2009 16:39:00,,1944.00,1055.00,277.00,152.00,85.00,101.00,64.00,31.00,APPROVED
AL: BIRMINGHAM,02/05/2009 17:39:00,,1942.00,1053.00,280.00,150.00,87.00,100.00,63.00,32.00,APPROVED
AL: BIRMINGHAM,02/06/2009 00:40:00,,1955.00,1060.00,282.00,151.00,86.00,102.00,63.00,31.00,APPROVED
AL: BIRMINGHAM,02/06/2009 01:41:00,,1955.00,1073.00,290.00,155.00,86.00,102.00,66.00,32.00,APPROVED
AL: BIRMINGHAM,02/06/2009 02:41:00,,1955.00,1073.00,287.00,159.00,88.00,102.00,64.00,32.00,APPROVED
AL: BIRMINGHAM,02/06/2009 04:41:00,,1941.00,1073.00,288.00,156.00,86.00,102.00,65.00,34.00,APPROVED
AL: BIRMINGHAM,02/06/2009 05:41:00,,1933.00,1060.00,286.00,157.00,89.00,101.00,65.00,32.00,APPROVED
AL: BIRMINGHAM,02/06/2009 06:41:00,,1929.00,1056.00,288.00,152.00,86.00,101.00,64.00,33.00,APPROVED
AL: BIRMINGHAM,02/06/2009 07:42:00,,1941.00,1055.00,286.00,153.00,88.00,102.00,66.00,31.00,APPROVED
AL: BIRMINGHAM,02/06/2009 08:42:00,,1941.00,1058.00,282.00,156.00,85.00,101.00,66.00,32.00,APPROVED
AL: BIRMINGHAM,02/06/2009 09:42:00,,1934.00,1069.00,289.00,158.00,88.00,104.00,66.00,32.00,APPROVED
AL: BIRMINGHAM,02/06/2009 10:42:00,,1956.00,1080.00,290.00,159.00,89.00,103.00,68.00,32.00,APPROVED
AL: BIRMINGHAM,02/06/2009 11:42:00,,1945.00,1087.00,286.00,161.00,89.00,103.00,67.00,34.00,APPROVED
AL: BIRMINGHAM,02/06/2009 12:43:00,,1962.00,1087.00,287.00,164.00,90.00,105.00,67.00,33.00,APPROVED
AL: BIRMINGHAM,02/08/2009 10:52:00,,1986.00,1108.00,295.00,160.00,89.00,105.00,66.00,33.00,APPROVED
AL: BIRMINGHAM,02/08/2009 11:52:00,,1979.00,1100.00,292.00,163.00,89.00,105.00,69.00,32.00,APPROVED
AL: BIRMINGHAM,02/08/2009 12:52:00,,1978.00,1110.00,294.00,163.00,89.00,106.00,67.00,34.00,APPROVED
AL: BIRMINGHAM,02/08/2009 21:54:00,,1904.00,1049.00,285.00,147.00,86.00,99.00,64.00,33.00,APPROVED
AL: BIRMINGHAM,02/13/2009 00:05:00,,2006.00,1114.00,297.00,164.00,90.00,110.00,67.00,33.00,APPROVED
AL: BIRMINGHAM,02/13/2009 01:05:00,,2010.00,1128.00,299.00,165.00,91.00,109.00,69.00,34.00,APPROVED
AL: BIRMINGHAM,02/13/2009 05:06:00,,2101.00,1228.00,320.00,190.00,101.00,120.00,74.00,38.00,APPROVED
AL: BIRMINGHAM,02/13/2009 16:08:00,,2067.00,1227.00,326.00,199.00,103.00,123.00,78.00,40.00,APPROVED
AL: BIRMINGHAM,02/13/2009 17:08:00,,2028.00,1188.00,315.00,188.00,97.00,117.00,71.00,38.00,APPROVED
AL: BIRMINGHAM,02/13/2009 18:08:00,,2047.00,1180.00,313.00,182.00,96.00,116.00,71.00,37.00,APPROVED
AL: BIRMINGHAM,02/13/2009 19:08:00,,2019.00,1162.00,311.00,182.00,96.00,113.00,72.00,37.00,APPROVED
AL: BIRMINGHAM,02/13/2009 20:09:00,,1995.00,1149.00,306.00,175.00,95.00,112.00,70.00,35.00,APPROVED
AL: BIRMINGHAM,02/13/2009 21:09:00,,2020.00,1162.00,311.00,178.00,97.00,115.00,71.00,36.00,APPROVED
AL: BIRMINGHAM,02/13/2009 22:09:00,,2052.00,1186.00,314.00,181.00,98.00,117.00,71.00,37.00,APPROVED
AL: BIRMINGHAM,02/13/2009 23:09:00,,2066.00,1201.00,317.00,179.00,95.00,117.00,73.00,37.00,APPROVED
AL: BIRMINGHAM,02/14/2009 00:09:00,,2060.00,1195.00,320.00,184.00,98.00,116.00,73.00,38.00,APPROVED
AL: BIRMINGHAM,02/15/2009 18:18:00,,2086.00,1205.00,328.00,187.00,99.00,121.00,77.00,38.00,APPROVED
AL: BIRMINGHAM,02/15/2009 19:18:00,,2081.00,1204.00,319.00,188.00,99.00,120.00,76.00,38.00,APPROVED
AL: BIRMINGHAM,02/16/2009 14:27:00,,1992.00,983.00,277.00,124.00,81.00,94.00,53.00,28.00,APPROVED
AL: BIRMINGHAM,02/16/2009 15:27:00,,2054.00,1039.00,301.00,137.00,86.00,103.00,58.00,29.00,APPROVED
AL: BIRMINGHAM,02/16/2009 16:27:00,,2085.00,1067.00,306.00,143.00,86.00,102.00,62.00,29.00,APPROVED
AL: BIRMINGHAM,02/16/2009 17:28:00,,2076.00,1069.00,301.00,145.00,87.00,100.00,61.00,29.00,APPROVED
AL: BIRMINGHAM,02/17/2009 03:30:00,,2054.00,1057.00,298.00,143.00,87.00,104.00,63.00,30.00,APPROVED
AL: BIRMINGHAM,02/17/2009 04:30:00,,2052.00,1053.00,299.00,138.00,87.00,100.00,60.00,30.00,APPROVED
AL: BIRMINGHAM,02/17/2009 05:30:00,,2072.00,1066.00,304.00,141.00,87.00,104.00,61.00,30.00,APPROVED
AL: BIRMINGHAM,02/17/2009 06:30:00,,2059.00,1073.00,311.00,140.00,89.00,106.00,60.00,29.00,APPROVED
AL: BIRMINGHAM,02/17/2009 07:30:00,,2097.00,1088.00,320.00,141.00,91.00,109.00,60.00,31.00,APPROVED
AL: BIRMINGHAM,02/17/2009 08:31:00,,2108.00,1118.00,326.00,141.00,91.00,112.00,61.00,30.00,APPROVED
AL: BIRMINGHAM,02/17/2009 09:31:00,,2109.00,1126.00,330.00,148.00,92.00,114.00,61.00,32.00,APPROVED
AL: BIRMINGHAM,02/17/2009 10:31:00,,2108.00,1141.00,342.00,151.00,92.00,118.00,62.00,32.00,APPROVED
AL: BIRMINGHAM,02/17/2009 11:31:00,,2077.00,1114.00,332.00,146.00,93.00,120.00,61.00,32.00,APPROVED
AL: BIRMINGHAM,02/17/2009 12:31:00,,2074.00,1090.00,326.00,142.00,90.00,111.00,60.00,31.00,APPROVED
AL: BIRMINGHAM,02/17/2009 14:32:00,,2078.00,1084.00,318.00,143.00,89.00,106.00,62.00,31.00,APPROVED
AL: BIRMINGHAM,02/17/2009 15:32:00,,2092.00,1097.00,316.00,144.00,90.00,105.00,64.00,31.00,APPROVED
AL: BIRMINGHAM,02/17/2009 16:32:00,,2127.00,1112.00,319.00,154.00,90.00,104.00,65.00,32.00,APPROVED
AL: BIRMINGHAM,02/17/2009 17:32:00,,2110.00,1113.00,314.00,150.00,90.00,106.00,66.00,31.00,APPROVED
AL: BIRMINGHAM,02/17/2009 18:32:00,,2219.00,1208.00,339.00,168.00,98.00,113.00,72.00,33.00,APPROVED
AL: BIRMINGHAM,02/17/2009 19:33:00,,2310.00,1267.00,363.00,182.00,104.00,125.00,76.00,33.00,APPROVED
AL: BIRMINGHAM,02/17/2009 20:33:00,,2156.00,1153.00,330.00,166.00,96.00,114.00,70.00,31.00,APPROVED
AL: BIRMINGHAM,02/17/2009 21:33:00,,2099.00,1106.00,319.00,154.00,92.00,104.00,67.00,31.00,APPROVED
AL: BIRMINGHAM,02/18/2009 02:34:00,,2095.00,1086.00,309.00,150.00,86.00,104.00,65.00,30.00,APPROVED
AL: BIRMINGHAM,02/18/2009 06:35:00,,2048.00,1063.00,295.00,146.00,85.00,95.00,65.00,29.00,APPROVED
AL: BIRMINGHAM,02/18/2009 08:35:00,,2193.00,1188.00,331.00,166.00,96.00,111.00,71.00,31.00,APPROVED
AL: BIRMINGHAM,02/18/2009 09:35:00,,2386.00,1347.00,372.00,196.00,108.00,129.00,80.00,35.00,APPROVED
AL: BIRMINGHAM,02/18/2009 10:36:00,,2256.00,1237.00,357.00,181.00,104.00,123.00,73.00,33.00,APPROVED
AL: BIRMINGHAM,02/18/2009 11:36:00,,2181.00,1188.00,336.00,175.00,94.00,114.00,72.00,32.00,APPROVED
AL: BIRMINGHAM,02/18/2009 13:36:00,,2037.00,1079.00,303.00,152.00,88.00,101.00,66.00,31.00,APPROVED
AL: BIRMINGHAM,02/18/2009 14:36:00,,2024.00,1065.00,296.00,153.00,88.00,99.00,64.00,31.00,APPROVED